Date String (YYYY-MM-DD hh:mm:ss) UTC,Instrument flags,Ambient pressure (hPa),Sample flow (lpm),Bypass flow (lpm),Sample temperature (°C),Ambient temperature (°C),ASC tube jacket temperature (°C),LED temperature (°C),Box temperature (°C),Sample RH (%),Span deviation,Mass concentration (μg/m³),Mass concentration (μg/m³),Mass concentration (μg/m³)
DateTimeUTC,F1_M11,P_M11,Q1_M11,Q2_M11,T1_M11,T2_M11,T3_M11,T4_M11,T5_M11,U1_M11,ZSPAN_M11,X0_M11,X2_M11,X1_M11
2023-01-24 23:00:00,,0824.3,5.00,0.00,22.6,21.4,00.0,31.4,24.5,11.4,-002.2,0021.94,0015.92,0015.18
2023-01-24 23:01:00,,0824.4,5.00,0.00,22.6,21.4,00.0,31.4,24.5,11.4,-002.1,0022.04,0015.91,0015.17
2023-01-24 23:02:00,,0824.3,5.00,0.00,22.6,21.4,00.0,31.4,24.5,11.5,-002.0,0022.25,0015.94,0015.16
2023-01-24 23:03:00,,0824.3,5.01,0.00,22.6,21.3,00.0,31.4,24.5,11.5,-002.1,0023.33,0016.00,0015.16
2023-01-24 23:04:00,,0824.4,5.00,0.00,22.6,21.2,00.0,31.4,24.4,11.4,-002.1,0023.34,0016.00,0015.16
2023-01-24 23:05:00,,0824.3,4.99,0.00,22.6,21.2,00.0,31.4,24.4,11.3,-002.1,0023.55,0015.95,0015.10
2023-01-24 23:06:00,,0824.3,5.01,0.00,22.6,21.1,00.0,31.4,24.4,11.2,-002.1,0023.65,0015.93,0015.08
2023-01-24 23:07:00,,0824.4,5.01,0.00,22.6,21.0,00.0,31.4,24.4,11.2,-002.1,0024.53,0015.89,0015.02
2023-01-24 23:08:00,,0824.3,5.01,0.00,22.6,20.9,00.0,31.4,24.3,11.3,-002.2,0024.41,0015.81,0014.96
2023-01-24 23:09:00,,0824.4,5.00,0.00,22.6,20.9,00.0,31.4,24.3,11.3,-002.4,0023.88,0015.74,0014.92
2023-01-24 23:10:00,,0824.3,4.99,0.00,22.6,20.8,00.0,31.4,24.3,11.3,-002.4,0023.73,0015.68,0014.88
2023-01-24 23:11:00,,0824.4,5.03,0.00,22.5,20.8,00.0,31.3,24.3,11.4,-002.5,0023.72,0015.67,0014.85
2023-01-24 23:12:00,,0824.3,4.98,0.00,22.5,20.8,00.0,31.3,24.3,11.4,-002.6,0023.68,0015.61,0014.80
2023-01-24 23:13:00,,0824.3,5.01,0.00,22.5,20.7,00.0,31.3,24.3,11.4,-002.7,0023.55,0015.55,0014.75
2023-01-24 23:14:00,,0824.4,5.01,0.00,22.5,20.7,00.0,31.3,24.3,11.4,-002.6,0022.38,0015.45,0014.70
2023-01-24 23:15:00,,0824.4,5.00,0.00,22.5,20.7,00.0,31.3,24.2,11.4,-002.7,0022.32,0015.41,0014.67
2023-01-24 23:16:00,,0824.3,4.98,0.00,22.5,20.7,00.0,31.3,24.2,11.5,-002.8,0022.20,0015.44,0014.68
2023-01-24 23:17:00,,0824.3,5.02,0.00,22.4,20.7,00.0,31.3,24.2,11.5,-002.8,0021.88,0015.39,0014.67
2023-01-24 23:18:00,,0824.3,5.00,0.00,22.4,20.7,00.0,31.2,24.2,11.5,-002.8,0020.94,0015.37,0014.66
2023-01-24 23:19:00,,0824.4,5.00,0.00,22.4,20.7,00.0,31.2,24.2,11.5,-002.7,0020.30,0015.39,0014.68
2023-01-24 23:20:00,,0824.4,5.02,0.00,22.4,20.7,00.0,31.2,24.2,11.5,-002.6,0020.34,0015.40,0014.69
2023-01-24 23:21:00,,0824.4,4.99,0.00,22.4,20.7,00.0,31.2,24.2,11.5,-002.7,0020.48,0015.43,0014.70
2023-01-24 23:22:00,,0824.3,5.02,0.00,22.4,20.7,00.0,31.2,24.2,11.5,-002.7,0020.42,0015.39,0014.69
2023-01-24 23:23:00,,0824.3,4.99,0.00,22.4,20.6,00.0,31.2,24.1,11.5,-002.7,0020.18,0015.33,0014.68
2023-01-24 23:24:00,,0824.3,4.97,0.00,22.4,20.6,00.0,31.2,24.1,11.5,-002.6,0020.17,0015.34,0014.67
2023-01-24 23:25:00,,0824.4,5.01,0.00,22.3,20.5,00.0,31.2,24.1,11.5,-002.5,0020.12,0015.33,0014.64
2023-01-24 23:26:00,,0824.4,5.02,0.00,22.3,20.6,00.0,31.2,24.1,11.5,-002.6,0020.26,0015.31,0014.62
2023-01-24 23:27:00,,0824.4,5.00,0.00,22.3,20.6,00.0,31.2,24.1,11.5,-002.6,0020.48,0015.32,0014.60
2023-01-24 23:28:00,,0824.4,5.00,0.00,22.3,20.6,00.0,31.1,24.1,11.5,-002.7,0020.96,0015.35,0014.59
2023-01-24 23:29:00,,0824.4,5.00,0.00,22.3,20.6,00.0,31.1,24.1,11.5,-002.7,0022.11,0015.41,0014.59
2023-01-24 23:30:00,,0824.4,5.00,0.00,22.3,20.7,00.0,31.1,24.1,11.5,-002.8,0022.55,0015.44,0014.57
2023-01-24 23:31:00,,0824.4,5.00,0.00,22.3,20.7,00.0,31.1,24.1,11.5,-002.8,0022.87,0015.51,0014.57
2023-01-24 23:32:00,,0824.4,5.01,0.00,22.3,20.8,00.0,31.1,24.1,11.6,-002.7,0022.79,0015.48,0014.57
2023-01-24 23:33:00,,0824.4,4.99,0.00,22.3,20.8,00.0,31.1,24.1,11.6,-002.7,0022.92,0015.49,0014.57
2023-01-24 23:34:00,,0824.4,5.00,0.00,22.3,20.9,00.0,31.1,24.1,11.6,-002.8,0023.18,0015.55,0014.57
2023-01-24 23:35:00,,0824.4,4.99,0.00,22.3,20.9,00.0,31.1,24.2,11.6,-002.8,0023.53,0015.53,0014.58
2023-01-24 23:36:00,,0824.4,5.00,0.00,22.3,20.9,00.0,31.1,24.2,11.6,-002.8,0023.90,0015.57,0014.62
2023-01-24 23:37:00,,0824.4,5.00,0.00,22.3,20.9,00.0,31.1,24.2,11.6,-002.6,0024.12,0015.63,0014.68
2023-01-24 23:38:00,,0824.4,4.99,0.00,22.3,20.9,00.0,31.1,24.2,11.5,-002.6,0024.29,0015.71,0014.71
2023-01-24 23:39:00,,0824.4,5.00,0.00,22.3,20.8,00.0,31.1,24.2,11.5,-002.6,0025.51,0015.79,0014.76
2023-01-24 23:40:00,,0824.4,5.00,0.00,22.3,20.7,00.0,31.1,24.1,11.5,-002.5,0024.92,0015.82,0014.81
2023-01-24 23:41:00,,0824.4,5.03,0.00,22.3,20.7,00.0,31.1,24.1,11.6,-002.4,0025.14,0015.88,0014.88
2023-01-24 23:42:00,,0824.4,4.99,0.00,22.3,20.6,00.0,31.1,24.1,11.6,-002.4,0025.00,0015.86,0014.91
2023-01-24 23:43:00,,0824.4,4.99,0.00,22.3,20.6,00.0,31.1,24.1,11.6,-002.4,0025.14,0015.94,0014.96
2023-01-24 23:44:00,,0824.3,4.99,0.00,22.3,20.6,00.0,31.1,24.1,11.6,-002.4,0025.91,0016.01,0015.02
2023-01-24 23:45:00,,0824.4,4.99,0.00,22.3,20.6,00.0,31.1,24.1,11.5,-002.3,0026.11,0016.04,0015.05
2023-01-24 23:46:00,,0824.4,5.01,0.00,22.3,20.6,00.0,31.1,24.1,11.6,-002.3,0026.42,0016.11,0015.09
2023-01-24 23:47:00,,0824.4,4.98,0.00,22.3,20.6,00.0,31.1,24.1,11.6,-002.3,0026.20,0016.12,0015.09
2023-01-24 23:48:00,,0824.4,4.98,0.00,22.3,20.6,00.0,31.0,24.1,11.6,-002.5,0026.50,0016.15,0015.10
2023-01-24 23:49:00,,0824.4,5.00,0.00,22.3,20.6,00.0,31.0,24.1,11.6,-002.5,0026.73,0016.10,0015.12
2023-01-24 23:50:00,,0824.4,5.00,0.00,22.3,20.6,00.0,31.0,24.1,11.6,-002.4,0025.57,0016.05,0015.14
2023-01-24 23:51:00,,0824.4,5.00,0.00,22.3,20.6,00.0,31.0,24.1,11.6,-002.5,0025.12,0016.05,0015.12
2023-01-24 23:52:00,,0824.4,4.98,0.00,22.2,20.6,00.0,31.0,24.1,11.6,-002.4,0024.94,0015.99,0015.09
2023-01-24 23:53:00,,0824.5,4.98,0.00,22.2,20.6,00.0,31.0,24.1,11.6,-002.5,0025.16,0015.97,0015.08
2023-01-24 23:54:00,,0824.4,5.01,0.00,22.2,20.6,00.0,31.0,24.1,11.6,-002.5,0025.32,0015.95,0015.06
2023-01-24 23:55:00,,0824.4,5.01,0.00,22.2,20.6,00.0,31.0,24.0,11.7,-002.6,0024.93,0015.91,0015.05
2023-01-24 23:56:00,,0824.4,5.00,0.00,22.2,20.7,00.0,31.0,24.0,11.7,-002.6,0025.78,0015.90,0015.06
2023-01-24 23:57:00,,0824.4,5.00,0.00,22.2,20.7,00.0,31.0,24.1,11.7,-002.6,0025.22,0015.87,0015.06
2023-01-24 23:58:00,,0824.4,5.01,0.00,22.2,20.7,00.0,31.0,24.1,11.7,-002.5,0025.04,0015.85,0015.06
2023-01-24 23:59:00,,0824.3,5.02,0.00,22.2,20.7,00.0,31.0,24.1,11.6,-002.3,0024.65,0015.84,0015.06
